Find Starlink 32386

NORAD ID: 61213 Int'l Des: 2024-171 Owner: SPXS Country: US Constellation: starlink operational
LEOCIRCULAR

当前视图

正在加载3D地球...

About Starlink 32386

Starlink 32386 (NORAD 61213) is a starlink constellation satellite (v2 mini) launched Sep 20, 2024 by SPXS of US. It operates in LEO, CIRCULAR orbit with a mass of 730.00 kg.

即将过境

Passes for default location (London). Set your location on the main map for personalized predictions.

高度历史

Loading altitude history...

两行轨道根数

1 61213U 24171P 26264.08807007 .00001039 00000-0 41910-4 0 9990
2 61213 53.1568 130.6716 0001146 81.3803 278.7330 15.34386687112344
Epoch: Sep 21, 2026 • Age: 15 hours

当前状态

高度 476.8 km
远地点 / 近地点 N/A
速度 7.63 km/s
星下点 -40.73°S, 175.49°W
发射日期 Sep 20, 2024
运行时间 2 years
类型 internet

技术详情

分类 Payload
质量 730.00 kg
干质量 700.00 kg
长度 0.30 m
跨度 29.00 m
形状 ? Box + pan
制造商 SPXS
平台类型 Starlink V2M
阶段状态 In Orbit
所有者/国家 SPXS/US

Most Searched